#timestamp,LO_Frequency,Hit 
1498608015.5,286047807.0,N
1498608035.3,286047806.5,N
1498608055.2,286047806.5,N
1498608075.9,286047807.2,N
1498608095.7,286047808.9,N
1498608115.6,286047807.9,N
1498608135.4,286047806.9,N
1498608155.2,286047807.6,N
1498608175.1,286047807.2,N
1498608176.0,286047807.2,N
1498608195.8,286047806.2,N
1498608215.7,286047807.0,N
1498608235.5,286047806.6,N
1498608255.3,286047809.0,N
1498608275.2,286047808.8,N
1498608295.0,286047807.2,N
1498608295.9,286047807.2,N
1498608315.8,286047808.9,N
1498608335.6,286047810.4,N
1498608355.4,286047806.1,N
1498608375.3,286047810.2,N
1498608395.1,286047807.7,N
1498608415.8,286047808.1,N
1498608435.7,286047810.5,N
1498608455.5,286047808.2,N
1498608475.4,286047808.9,N
1498608495.2,286047808.9,N
1498608515.0,286047810.5,N
1498608515.9,286047810.5,N
1498608535.8,286047810.4,N
1498608555.6,286047808.1,N
1498608575.4,286047807.9,N
1498608595.3,286047810.3,N
1498608615.1,286047808.3,N
1498608635.9,286047810.8,N
1498608655.7,286047809.0,N
1498608675.5,286047808.6,N
1498608695.4,286047809.9,N
1498608715.2,286047811.0,N
1498608735.0,286047810.9,N
1498608735.9,286047810.9,N
1498608755.8,286047812.7,N
1498608775.6,286047813.4,N
1498608795.5,286047813.6,N
1498608815.3,286047815.6,N
1498608835.1,286047815.2,N
1498608855.9,286047812.9,N
1498608875.7,286047812.1,N
1498608895.5,286047813.7,N
1498608915.4,286047813.6,N
1498608935.2,286047813.5,N
1498608955.1,286047811.4,N
1498608956.0,286047811.4,N
1498608975.8,286047812.4,N
1498608995.6,286047811.6,N
1498609015.5,286047812.3,N
1498609035.3,286047811.5,N
1498609055.2,286047811.4,N
1498609075.9,286047809.3,N
1498609095.7,286047809.8,N
1498609115.6,286047810.0,N
1498609135.4,286047812.2,N
1498609155.2,286047811.7,N
1498609175.1,286047810.2,N
1498609176.0,286047810.2,N
1498609195.8,286047809.4,N
1498609215.7,286047811.6,N
1498609235.5,286047811.9,N
1498609255.3,286047809.9,N
1498609275.2,286047809.8,N
1498609295.0,286047812.4,N
1498609295.9,286047812.4,N
1498609315.7,286047809.3,N
1498609335.6,286047811.3,N
1498609355.4,286047813.8,N
1498609375.3,286047811.2,N
1498609395.1,286047810.2,N
1498609415.8,286047810.2,N
1498609435.7,286047807.7,N
1498609455.5,286047811.9,N
1498609475.3,286047807.9,N
1498609495.2,286047808.5,N
1498609515.0,286047806.6,N
1498609515.9,286047806.6,N
1498609535.8,286047808.7,N
1498609555.6,286047809.2,N
1498609575.4,286047809.1,N
1498609595.3,286047806.9,N
1498609615.1,286047807.1,N
1498609635.9,286047807.2,N
1498609655.7,286047807.5,N
1498609675.5,286047806.8,N
1498609695.4,286047806.2,N
1498609715.2,286047806.8,N
1498609735.0,286047807.9,N
1498609735.9,286047807.9,N
1498609755.8,286047808.2,N
1498609775.6,286047808.6,N
1498609795.5,286047808.4,N
1498609815.3,286047809.9,N
1498609835.1,286047808.2,N
1498609855.9,286047809.9,N
1498609875.7,286047811.8,N
1498609895.5,286047810.0,N
1498609915.4,286047809.8,N
1498609935.2,286047809.3,N
1498609955.1,286047812.2,N
1498609956.0,286047812.2,N
1498609975.8,286047808.1,N
1498609995.6,286047807.8,N
1498610015.5,286047807.8,N
1498610035.3,286047811.4,N
1498610055.1,286047811.8,N
1498610075.9,286047810.0,N
1498610095.7,286047814.0,N
1498610115.6,286047811.0,N
1498610135.4,286047812.4,N
1498610155.2,286047811.0,N
1498610175.1,286047812.2,N
1498610176.0,286047812.2,N
1498610195.8,286047813.4,N
1498610215.7,286047811.8,N
1498610235.5,286047812.3,N
1498610255.3,286047811.9,N
1498610275.2,286047811.0,N
1498610295.0,286047813.5,N
1498610295.9,286047813.5,N
1498610315.7,286047810.6,N
1498610335.6,286047810.2,N
1498610355.4,286047810.9,N
1498610375.3,286047813.9,N
1498610395.1,286047812.1,N
1498610396.0,286047812.1,N
1498610415.8,286047809.7,N
1498610435.7,286047813.3,N
1498610455.5,286047813.7,N
1498610475.3,286047812.3,N
1498610495.2,286047809.3,N
1498610515.0,286047809.5,N
1498610515.9,286047809.5,N
1498610535.8,286047810.0,N
1498610555.6,286047810.4,N
1498610575.4,286047808.0,N
1498610595.3,286047809.9,N
1498610615.1,286047811.9,N
1498610635.9,286047812.3,N
1498610655.7,286047809.6,N
1498610675.5,286047807.9,N
1498610695.4,286047810.1,N
1498610715.2,286047811.1,N
1498610735.0,286047809.8,N
1498610735.9,286047809.8,N
1498610755.8,286047810.5,N
1498610775.6,286047810.0,N
1498610795.5,286047810.6,N
1498610815.3,286047809.6,N
1498610835.1,286047812.8,N
1498610855.9,286047809.8,N
1498610875.7,286047810.4,N
1498610895.5,286047807.9,N
1498610915.4,286047808.6,N
1498610935.2,286047810.5,N
1498610955.1,286047808.6,N
1498610956.0,286047808.6,N
1498610975.8,286047810.4,N
1498610995.6,286047810.0,N
1498611015.5,286047811.5,N
1498611035.3,286047812.3,N
1498611055.2,286047807.7,N
1498611075.9,286047805.5,N
1498611095.7,286047808.5,N
1498611115.6,286047809.6,N
1498611135.4,286047810.7,N
1498611155.2,286047809.2,N
1498611175.1,286047806.1,N
1498611176.0,286047806.1,N
1498611195.8,286047808.2,N
1498611215.7,286047810.6,N
1498611235.5,286047809.3,N
1498611255.3,286047809.9,N
1498611275.2,286047809.5,N
1498611295.0,286047811.1,N
1498611295.9,286047811.1,N
1498611315.7,286047813.5,N
1498611335.6,286047809.8,N
1498611355.4,286047810.4,N
1498611375.3,286047808.6,N
1498611395.1,286047806.1,N
1498611396.0,286047806.1,N
1498611415.8,286047810.2,N
1498611435.7,286047811.1,N
1498611455.5,286047813.3,N
1498611475.3,286047810.9,N
1498611495.2,286047811.6,N
1498611515.0,286047809.8,N
1498611515.9,286047809.8,N
1498611535.8,286047811.8,N
1498611555.6,286047810.7,N
1498611575.4,286047809.5,N
1498611595.3,286047807.7,N
